Location: Unspecified
(0.0000°N, 0.0000°E)
Time: 02:54:46
(UTC+00:00)

Explorer 11/Cluster Stage 4 - Pass Details

Date: 22 April 2026
Orbit: 463 x 1174 km, 28.8° (Epoch: 15 May)

Event Time Altitude Azimuth Distance (km) Brightness Sun altitude
Exits shadow 03:46:15 17° 96° (E) 1,330 8.4 -32.3°
Drops below altitude 10° 03:47:30 10° 85° (E) 1,761 9.2 -31.9°
Sets 03:50:05 0° 75° (ENE) 2,747 10.5 -31.3°
